TOP > 外国特許検索

外国特許検索

Display results per page Option
Patent state
Country

Clear

Hits 4690 results

No. Application number
Gazette No
Country
Title
Release Date
Update Date
Information Provider
201 2013JP064943 WO 2013180186 世界知的所有権機関(WIPO) SEMICONDUCTOR DEVICE FOR HIGH-VOLTAGE INSULATED GATE POWER, AND METHOD FOR MANUFACTURING SAME 新技術説明会 2014/06/18 2015/07/29 九州工業大学
202 2013JP071952 WO 2014038364 世界知的所有権機関(WIPO) ELECTROMAGNETIC WAVE IDENTIFICATION METHOD AND IDENTIFICATION DEVICE 新技術説明会 2014/09/26 2015/07/15 九州工業大学
203 2013JP081163 WO 2014080905 世界知的所有権機関(WIPO) PULSE DETECTION DEVICE AND PULSE DETECTION METHOD 新技術説明会 2014/09/26 2015/07/15 九州工業大学
204 2013JP081624 WO 2014084162 世界知的所有権機関(WIPO) SIGNAL NOISE ELIMINATOR AND METHOD AND PROGRAM THEREFOR 新技術説明会 2014/11/19 2015/07/15 九州工業大学
205 2014JP076343 WO 2015068503 世界知的所有権機関(WIPO) POLYMER, METHOD FOR PRODUCING SAME, AND ADHESIVE COMPOSITION 2014/12/09 2015/07/15 九州工業大学
206 2013JP083320 WO 2014112257 世界知的所有権機関(WIPO) NON-CONTACT DISCHARGE TEST METHOD AND DEVICE 新技術説明会 2015/02/09 2015/07/22 九州工業大学
207 2013JP069536 WO 2014014062 世界知的所有権機関(WIPO) MOVABLE CAPSULE DEVICE AND METHOD FOR CONTROLLING SAME 新技術説明会 2015/02/26 2015/07/15 九州工業大学
208 2014JP065259 WO 2014196653 世界知的所有権機関(WIPO) SIGNAL CONTROL APPARATUS 2015/04/03 2015/07/22 九州工業大学
209 2013JP082668 WO 2014174719 世界知的所有権機関(WIPO) DISCHARGE OCCURRENCE STATUS EVALUATION DEVICE AND EVALUATION METHOD 新技術説明会 2015/04/15 2015/07/22 九州工業大学
210 2014JP071626 WO 2015033768 世界知的所有権機関(WIPO) SUPERCONDUCTING CABLE 2015/07/02 2015/07/15 九州工業大学
211 2015JP057828 WO 2015141657 世界知的所有権機関(WIPO) SOUND WAVE SENSOR 2016/04/20 2016/04/20 九州工業大学
212 2015JP073391 WO 2016027858 世界知的所有権機関(WIPO) METHOD FOR PRODUCING LAYERED NANO THIN-FILM COMPRISING METAL OXIDE FILM AND POLYMER COMPOUND FILM, METHOD FOR PRODUCING METAL OXIDE NANO THIN-FILM, AND LAYERED NANO THIN-FILM COMPRISING METAL OXIDE FILM AND POLYMER COMPOUND FILM 新技術説明会 2016/05/23 2016/05/23 九州工業大学
213 2016JP071542 WO 2017014297 世界知的所有権機関(WIPO) ROGOWSKI CURRENT SENSOR 2017/03/29 2019/04/22 九州工業大学
214 2015JP059671 WO 2015152062 世界知的所有権機関(WIPO) REFORMED MAGNETIC FLUID, AND GRIPPING MECHANISM AND GRIPPING DEVICE WHICH USE REFORMED MAGNETIC FLUID 新技術説明会 2015/12/16 2015/12/16 九州工業大学
215 2016JP073445 WO 2017026483 世界知的所有権機関(WIPO) SEMICONDUCTOR INSPECTION DEVICE 新技術説明会 実績あり 2017/10/31 2019/04/22 九州工業大学
216 2018JP008943 WO 2018180330 世界知的所有権機関(WIPO) EMOTION ESTIMATING APPARATUS 新技術説明会 2018/10/30 2019/01/30 九州工業大学
217 2019JP000798 WO 2019139153 世界知的所有権機関(WIPO) PEROVSKITE COMPOUND AND LIGHT CONVERSION ELEMENT IN WHICH SAME IS USED 新技術説明会 2019/10/24 2019/10/24 九州工業大学
218 2019JP043715 WO 2020110651 世界知的所有権機関(WIPO) SPHERICAL BODY DRIVE TYPE MOVEMENT DEVICE 新技術説明会 2020/07/29 2020/07/29 九州工業大学
219 2020JP027085 WO 2021006343 世界知的所有権機関(WIPO) COMMUNICATION SYSTEM, REMOTE CONTROL MACHINE SYSTEM, AND COMMUNICATION METHOD 2021/05/06 2021/05/06 九州工業大学
220 2008JP058438 WO 2008/139980 世界知的所有権機関(WIPO) NOVEL LIVING RADICAL POLYMERIZATION METHOD USING PHOSPHORUS COMPOUND OR NITROGEN COMPOUND AS CATALYST 新技術説明会 2009/05/15 2009/05/08 京都大学
221 2008JP056137 WO 2008/123432 世界知的所有権機関(WIPO) DEVICE AND METHOD FOR ACQUIRING A FIELD BY MEASUREMENT 2009/05/15 2009/05/11 京都大学
222 2009JP062974 WO 2010/029810 世界知的所有権機関(WIPO) STRUCTURE OPTIMIZATION DEVICE, STRUCTURE OPTIMIZATION METHOD, AND STRUCTURE OPTIMIZATION PROGRAM 2010/07/16 2010/07/13 京都大学
223 2009JP065694 WO 2010/027093 世界知的所有権機関(WIPO) CATALYST FOR LIVING RADICAL POLYMERIZATION 2010/07/16 2010/07/13 京都大学
224 2009JP052115 WO 2009/136510 世界知的所有権機関(WIPO) NOVEL LIVING RADICAL POLYMERIZATION METHOD WHEREIN ALCOHOL IS USED AS CATALYST 2010/07/16 2010/07/13 京都大学
225 2006JP304093 WO 2006/095648 世界知的所有権機関(WIPO) THREE-DIMENSIONAL PHOTONIC CRYSTAL AND METHOD FOR PRODUCING THE SAME 2010/11/25 2010/12/15 京都大学
226 2009JP060950 WO 2009/154201 世界知的所有権機関(WIPO) CELL ADHESION PROMOTING AGENT AND METHOD OF PROMOTING CELL ADHESION 新技術説明会 2011/05/06 2011/05/25 京都大学
227 2010JP053560 WO 2010/101221 世界知的所有権機関(WIPO) NONDESTRUCTIVE EXAMINATION SYSTEM USING NUCLEAR RESONANCE FLUORESCENCE SCATTERING 2011/05/06 2011/05/25 京都大学
228 2010JP003722 WO 2010/140372 世界知的所有権機関(WIPO) POLYMERIZATION INITIATOR FOR LIVING RADICAL POLYMERIZATION 2011/06/27 2011/06/27 京都大学
229 2010JP003181 WO 2011/016166 世界知的所有権機関(WIPO) CATALYST FOR LIVING RADICAL POLYMERIZATION AND POLYMERIZATION METHOD 2011/06/27 2011/06/27 京都大学
230 2011JP050616 WO 2011083881 世界知的所有権機関(WIPO) VACCINE FOR TREATMENT OF TAUTOPATHY 2011/09/15 2019/04/24 京都大学
231 2010JP066900 WO 2011/040434 世界知的所有権機関(WIPO) CYCLOPARA(HETERO)ARYLENE COMPOUND AND METHOD FOR PRODUCING SAME 実績あり 2011/11/09 2011/12/02 京都大学
232 2010JP063345 WO 2011016540 世界知的所有権機関(WIPO) NOVEL UBIQUITIN LIGASE AND USE THEREOF 2011/11/09 2020/05/20 京都大学
233 99183809 8378044 アメリカ合衆国 Living radical polymerization method using alcohol as catalyst 2012/01/06 2018/07/19 京都大学
234 99980509 8685976 アメリカ合衆国 Cell adhesion promoting agent and method of promoting cell adhesion 2012/01/06 2018/07/19 京都大学
235 2011JP068157 WO 2012020759 世界知的所有権機関(WIPO) VARIANT REVERSE TRANSCRIPTASE 2012/05/16 2019/04/24 京都大学
236 2011JP071891 WO 2012043477 世界知的所有権機関(WIPO) LINKER FOR UNIMOLECULAR FRET BIOSENSOR BASED ON PRINCIPLE OF FLUORESCENCE RESONANCE ENERGY TRANSFER 2012/05/24 2019/04/24 京都大学
237 2011JP053428 WO 2011102436 世界知的所有権機関(WIPO) TGF-Β SIGNAL TRANSDUCTION INHIBITOR 2012/05/24 2020/05/20 京都大学
238 2008JP073733 WO 2009/116219 世界知的所有権機関(WIPO) SUPERCONDUCTIVE ROTOR, SUPERCONDUCTIVE ROTATING MACHINE, AND SUPERCONDUCTIVE ROTATING-MACHINE SYSTEM 2012/06/14 2012/06/27 京都大学
239 2011JP067393 WO 2012/015023 世界知的所有権機関(WIPO) METHOD FOR SCREENING ANTICANCER AGENTS 2012/06/14 2012/06/27 京都大学
240 2011JP073160 WO 2012/043891 世界知的所有権機関(WIPO) AGENT FOR TREATMENT OF EYE DISEASES 新技術説明会 2012/06/14 2012/06/27 京都大学
241 2011JP067320 WO 2012/014994 世界知的所有権機関(WIPO) NAPHTHALENE DERIVATIVE 新技術説明会 2012/09/19 2012/09/19 京都大学
242 2012JP061204 WO 2012/169294 世界知的所有権機関(WIPO) DTM ESTIMATION METHOD, DTM ESTIMATION PROGRAM, DTM ESTIMATION DEVICE, AND METHOD FOR CREATING 3-DIMENSIONAL BUILDING MODEL, AS WELL AS REGION EXTRACTION METHOD, REGION EXTRACTION PROGRAM, AND REGION EXTRACTION DEVICE 2012/12/27 2012/12/27 京都大学
243 2011JP076004 WO 2012063923 世界知的所有権機関(WIPO) SIC CERAMIC MATERIAL AND SIC CERAMIC STRUCTURE, AND PRODUCTION METHOD FOR SAME 2013/01/11 2019/01/30 京都大学
244 2012JP069845 WO 2013/021944 世界知的所有権機関(WIPO) METAL NANOPARTICLE-PCP COMPLEX AND MANUFACTURING METHOD THEREFOR 2013/02/27 2013/02/27 京都大学
245 57497804 7471045 アメリカ合衆国 Microwave generator 実績あり 2013/07/10 2018/07/19 京都大学
246 2006JP325771 WO 2007/074769 世界知的所有権機関(WIPO) CASSETTE FOR FIXING, EMBEDDING AND SLICING BIOLOGICAL TISSUE AND METHOD OF HANDLING THE SAME 実績あり 2013/07/10 2013/09/17 京都大学
247 2012JP060613 WO 2012/144560 世界知的所有権機関(WIPO) SELF-GELATINIZABLE NUCLEIC ACID 新技術説明会 2013/07/10 2013/07/10 京都大学
248 2011JP003059 WO 2011/152043 世界知的所有権機関(WIPO) TRANSGENIC REPORTER SYSTEM THAT REVEALS EXPRESSION PROFILES AND REGULATION MECHANISMS OF ALTERNATIVE SPLICING IN MAMMALIAN ORGANISMS 2013/07/10 2013/09/17 京都大学
249 90266801 06507152 アメリカ合衆国 Microwave/DC cyclotron wave converter having decreased magnetic field 2013/07/10 2013/07/10 京都大学
250 2012JP005336 WO 2013/027419 世界知的所有権機関(WIPO) LIVING RADICAL POLYMERIZATION CATALYST AND POLYMERIZATION METHOD 2013/07/10 2013/07/10 京都大学
251 2013JP054952 WO 2013/129390 世界知的所有権機関(WIPO) METHOD AND DEVICE FOR MEASUREMENT OF UNOCCUPIED ENERGY LEVELS OF SOLID 新技術説明会 2013/12/05 2013/12/05 京都大学
252 2012JP083280 WO 2013094739 世界知的所有権機関(WIPO) HELMHOLTZ RESONANCE CONTAINER FOR VOLUME MEASUREMENT, VOLUME MEASUREMENT DEVICE, AND VOLUME MEASUREMENT METHOD 新技術説明会 2014/01/08 2015/07/28 京都大学
253 201313860658 9178239 アメリカ合衆国 Proton conductor, method for manufacturing proton conductor, and fuel cell 2014/02/19 2018/07/19 京都大学
254 2009JP064131 WO 2010021265 世界知的所有権機関(WIPO) CLUSTER JET PROCESSING METHOD, SEMICONDUCTOR ELEMENT, MICROELECTROMECHANICAL ELEMENT, AND OPTICAL COMPONENT 2014/02/25 2015/07/28 京都大学
255 2007JP063516 WO 2008001952 世界知的所有権機関(WIPO) THIN FILM MULTILOCULAR STRUCTURE COMPRISING COLLAGEN, MATERIAL FOR TISSUE REGENERATION CONTAINING THE SAME AND METHOD FOR PRODUCING THE SAME 2014/08/13 2015/07/28 京都大学
256 2013JP073042 WO 2014034734 世界知的所有権機関(WIPO) NUCLEAR MATERIAL DETECTION DEVICE AND NUCLEAR MATERIAL DETECTION METHOD 2014/08/13 2016/09/29 京都大学
257 2013JP072804 WO 2014034634 世界知的所有権機関(WIPO) SOLAR CELL 2014/08/13 2016/09/29 京都大学
258 2013JP072800 WO 2014034631 世界知的所有権機関(WIPO) ELECTRICITY-GENERATING LAYER OF SOLAR CELL, METHOD FOR PRODUCING SAME, AND SOLAR CELL 2014/08/13 2016/09/29 京都大学
259 2004JP012405 WO 2005022222 世界知的所有権機関(WIPO) TWO-DIMENSIONAL PHOTONIC CRYSTAL WITH AIR BRIDGE STRUCTURE AND MANUFACTURING METHOD FOR THE CRYSTAL 2014/08/20 2015/07/28 京都大学
260 58998206 7883563 アメリカ合衆国 Honeycomb structure and manufacturing method thereof, and air cleaner and water purifier containing the honeycomb structure 2014/08/20 2018/07/19 京都大学
261 2014JP059082 WO 2014157606 世界知的所有権機関(WIPO) CROSSLINKED HYDROPHOBIZED-POLYSACCHARIDE NANOGEL PARTICLES AND MANUFACTURING METHOD THEREFOR 2015/03/26 2019/04/24 京都大学
262 2014JP063363 WO 2014189051 世界知的所有権機関(WIPO) POWER PACKET GENERATION DEVICE, POWER ROUTER, AND POWER NETWORK 新技術説明会 2015/03/27 2015/07/21 京都大学
263 2014JP064452 WO 2014192927 世界知的所有権機関(WIPO) COMPUTER SIMULATION SYSTEM 2015/04/03 2016/09/29 京都大学
264 24036105 7488474 アメリカ合衆国 Method for detecting regulatory T cells using expression of folate receptor 4 as indicator, method for treating diseases using the detection method, pharmaceutical composition for immunostimulation, and method for treating diseases using the composition 2015/10/21 2018/07/19 京都大学
265 2008JP072178 WO 2009072618 世界知的所有権機関(WIPO) RADIATION THERAPY PLANNING DEVICE AND RADIATION THERAPY PLANNING METHOD 2015/10/21 2015/11/02 京都大学
266 2010JP070203 WO 2011059061 世界知的所有権機関(WIPO) DEVICE FOR CONTROLLING RADIATION THERAPY DEVICE AND METHOD FOR MEASURING POSITION OF SPECIFIC PART 2015/10/21 2015/11/02 京都大学
267 2012JP080364 WO 2013077423 世界知的所有権機関(WIPO) METHOD FOR CULTURING PLURIPOTENT STEM CELL 2015/10/21 2015/11/02 京都大学
268 2014JP052673 WO 2014136519 世界知的所有権機関(WIPO) PROMOTER OF DIFFERENTIATION OF PLURIPOTENT STEM CELL INTO MYOCARDIUM, WHICH COMPRISES EGF RECEPTOR INHIBITOR 2015/10/21 2015/11/02 京都大学
269 2013JP074437 WO 2014136296 世界知的所有権機関(WIPO) PRODUCTION METHOD FOR ELECTROLYTIC COPPER 2015/10/21 2015/11/02 京都大学
270 2014JP059285 WO 2014168033 世界知的所有権機関(WIPO) MAGNETIC RESONANCE IMAGING APPARATUS 2015/10/21 2015/11/02 京都大学
271 2014JP053898 WO 2014129495 世界知的所有権機関(WIPO) MEDICINE FOR TREATING EYE DISEASE 2015/10/21 2015/11/02 京都大学
272 2014JP063527 WO 2014185550 世界知的所有権機関(WIPO) METHOD FOR DETERMINING PROGNOSIS OF CANCER 2015/10/21 2019/04/24 京都大学
273 2013JP055691 WO 2014132445 世界知的所有権機関(WIPO) METHOD FOR PRODUCING LIQUID DISPERSION OF CERAMIC MICROPARTICLES 2015/10/21 2015/11/02 京都大学
274 2014JP074233 WO 2015/037706 世界知的所有権機関(WIPO) COMPOUND PROMOTING DIFFERENTIATION OF PLURIPOTENT STEM CELLS INTO CARDIOMYOCYTES 2015/10/21 2015/10/21 京都大学
275 2014JP073256 WO 2015/033981 世界知的所有権機関(WIPO) MEDICINAL COMPOSITION IMPROVING LEPTIN RESISTANCE 2015/10/21 2015/10/21 京都大学
276 2010JP054600 WO 2010113647 世界知的所有権機関(WIPO) VECTOR UTILIZING BORNA DISEASE VIRUS AND USE THEREOF 2015/10/26 2015/11/02 京都大学
277 2013JP059208 WO 2013146997 世界知的所有権機関(WIPO) URINARY BIOMARKER FOR USE IN TEST FOR PROSTATE CANCER 2015/11/05 2019/04/24 京都大学
278 2015JP056665 WO 2015133608 世界知的所有権機関(WIPO) SURGERY ASSISTANCE SYSTEM AND CAMERA UNIT USED THEREIN 2016/01/28 2016/01/28 京都大学
279 2016JP059515 WO 2016158707 世界知的所有権機関(WIPO) DRUG-CARRYING HYDROGEL FORMULATION AND METHOD FOR PRODUCING SAME 2016/12/21 2019/02/01 京都大学
280 2017JP008007 WO 2017150580 世界知的所有権機関(WIPO) Ru Cu SOLID SOLUTION NANOPARTICLES, PRODUCTION METHOD THEREFOR, AND CATALYST 2018/03/13 2019/04/24 京都大学
281 2017JP008058 WO 2017150596 世界知的所有権機関(WIPO) MULTICOMPONENT SOLID SOLUTION MICROPARTICLES AND METHOD FOR PRODUCING SAME, AND CATALYST 2018/03/13 2018/03/13 京都大学
282 201715695090 10339930 アメリカ合衆国 Voice interaction apparatus and automatic interaction method using voice interaction apparatus 2018/11/16 2019/07/24 京都大学
283 201515111730 20180110880 アメリカ合衆国 Atp-visualizing animal and use thereof 2018/11/16 2019/01/30 京都大学
284 201715829067 10562830 アメリカ合衆国 Acetylene removal from light hydrocarbon mixtures by metal-organic framework exhibiting dual size and chemical selectivities 2018/11/16 2020/05/29 京都大学
285 201715454316 10794990 アメリカ合衆国 Structure evaluation apparatus, structure evaluation system, and structure evaluation method 2018/11/16 2020/10/26 京都大学
286 201615220828 9929424 アメリカ合衆国 PROTON CONDUCTOR, METHOD FOR PRODUCING PROTON CONDUCTOR, AND FUEL CELL 2018/11/16 2018/11/16 京都大学
287 201514859577 9729135 アメリカ合衆国 GATE DRIVER 2018/11/16 2018/11/16 京都大学
288 201213629723 9285300 アメリカ合衆国 MONOLITHIC SILICONE AND METHOD OF SEPARATION, PURIFICATION AND CONCENTRATION THEREWITH 2018/11/16 2018/11/16 京都大学
289 201113205272 8753749 アメリカ合衆国 THERMAL EXPANSION SUPPRESSING MEMBER AND ANTI-THERMALLY-EXPANSIVE MEMBER 2018/11/16 2018/11/16 京都大学
290 2017JP044527 WO 2018123559 世界知的所有権機関(WIPO) INFORMATION PROCESSING DEVICE, INFORMATION PROCESSING METHOD, AND PROGRAM 2018/11/16 2019/01/30 京都大学
291 2017JP045816 WO 2018131416 世界知的所有権機関(WIPO) INFORMATION PROCESSING DEVICE, INFORMATION PROCESSING METHOD, AND PROGRAM 2018/11/16 2019/01/30 京都大学
292 2017JP042820 WO 2018110279 世界知的所有権機関(WIPO) TRANSMISSION DEVICE, TRANSMISSION METHOD, RECEPTION DEVICE, AND RECEPTION METHOD 2018/11/16 2019/01/30 京都大学
293 2017JP039426 WO 2018079855 世界知的所有権機関(WIPO) PHARMACEUTICAL COMPOSITION FOR INDUCING PROGRAMMED CELL DEATH IN CANCER CELLS 2018/11/16 2019/04/24 京都大学
294 2017JP031453 WO 2018043674 世界知的所有権機関(WIPO) COMPOSITION FOR ACTIVATING NEUROGENESIS UPDATE 2018/11/16 2021/05/20 京都大学
295 2017JP042333 WO 2018097272 世界知的所有権機関(WIPO) ABNORMALITY DETECTING DEVICE, COMMUNICATION DEVICE, ABNORMALITY DETECTING METHOD, PROGRAM, AND RECORDING MEDIUM 2018/11/16 2019/01/30 京都大学
296 2017JP030239 WO 2018074058 世界知的所有権機関(WIPO) LASER PROCESSING METHOD 2018/11/16 2019/01/30 京都大学
297 2017JP043191 WO 2018101446 世界知的所有権機関(WIPO) ELECTRONIC DEVICE HAVING PHOTOELECTRIC CONVERSION FUNCTION 2018/11/19 2019/01/30 京都大学
298 2017JP032850 WO 2018100836 世界知的所有権機関(WIPO) NONLINEAR OPTIMIZATION PROGRAM OF CONTINUOUS VALUE OPTIMIZATION PROBLEM, ROUTE SEARCH PROGRAM, AND ROUTE SEARCH APPARATUS 2018/11/19 2019/01/30 京都大学
299 2017JP023556 WO 2018030015 世界知的所有権機関(WIPO) RESECTION PROCESS ESTIMATION DEVICE AND RESECTION PROCESS NAVIGATION SYSTEM 2018/11/19 2019/04/24 京都大学
300 2017JP008818 WO 2017199542 世界知的所有権機関(WIPO) STRUCTURE ASSESSMENT SYSTEM, STRUCTURE ASSESSMENT DEVICE AND STRUCTURE ASSESSMENT METHOD 2018/11/20 2019/01/31 京都大学

(3/47 page)

PAGE TOP